Location: Grossmotten
(48.5500°N, 15.3833°E)
Time: 18:46:45
(UTC+00:00)

NOSS 3-4 (A) - Pass Details

Date: 15 November 2019
Orbit: 907 x 1306 km, 63.4° (Epoch: 11 December)

Event Time Altitude Azimuth Distance (km) Brightness Sun altitude
Exits shadow 04:19:53 14° 322° (NW) 2,585 5.3 -17.4°
Maximum altitude 04:25:54 71° 45° (NE) 1,199 4.0 -16.5°
Drops below altitude 10° 04:33:29 10° 130° (SE) 3,165 7.1 -15.2°
Sets 04:36:22 0° 132° (SE) 4,174 7.9 -14.8°
